Time,TemperatureF,DewpointF,PressureIn,WindDirection,WindDirectionDegrees,WindSpeedMPH,WindSpeedGustMPH,Humidity,HourlyPrecipIn,Conditions,Clouds,dailyrainin,SoftwareType,DateUTC
2013-10-20 00:00:00,45.0,-99.9,-100.00,NNE,27,16.0,19.0,-999,-99.99,,,-99.99,,2013-10-20 06:00:00,
2013-10-20 00:42:00,45.0,-99.9,-100.00,NNE,27,16.0,19.0,-999,-99.99,,,-99.99,,2013-10-20 06:42:00,
2013-10-20 00:52:00,45.0,-99.9,-100.00,NNE,27,16.0,19.0,-999,-99.99,,,-99.99,,2013-10-20 06:52:00,
2013-10-20 01:00:00,42.0,-99.9,-100.00,NNE,31,14.0,21.0,-999,-99.99,,,-99.99,,2013-10-20 07:00:00,
2013-10-20 01:22:00,42.0,-99.9,-100.00,NNE,31,14.0,21.0,-999,-99.99,,,-99.99,,2013-10-20 07:22:00,
2013-10-20 01:32:00,42.0,-99.9,-100.00,NNE,31,14.0,21.0,-999,-99.99,,,-99.99,,2013-10-20 07:32:00,
2013-10-20 01:42:00,42.0,-99.9,-100.00,NNE,31,14.0,21.0,-999,-99.99,,,-99.99,,2013-10-20 07:42:00,
2013-10-20 01:53:00,42.0,-99.9,-100.00,NNE,31,14.0,21.0,-999,-99.99,,,-99.99,,2013-10-20 07:53:00,
2013-10-20 02:00:00,39.0,-99.9,-100.00,SE,126,3.0,4.0,-999,-99.99,,,-99.99,,2013-10-20 08:00:00,
2013-10-20 02:22:00,39.0,-99.9,-100.00,SE,126,3.0,4.0,-999,-99.99,,,-99.99,,2013-10-20 08:22:00,
2013-10-20 02:33:00,39.0,-99.9,-100.00,SE,126,3.0,4.0,-999,-99.99,,,-99.99,,2013-10-20 08:33:00,
2013-10-20 02:42:00,39.0,-99.9,-100.00,SE,126,3.0,4.0,-999,-99.99,,,-99.99,,2013-10-20 08:42:00,
2013-10-20 02:52:00,39.0,-99.9,-100.00,SE,126,3.0,4.0,-999,-99.99,,,-99.99,,2013-10-20 08:52:00,
2013-10-20 03:00:00,40.0,-99.9,-100.00,NNE,29,12.0,15.0,-999,-99.99,,,-99.99,,2013-10-20 09:00:00,
2013-10-20 03:43:00,40.0,-99.9,-100.00,NNE,29,12.0,15.0,-999,-99.99,,,-99.99,,2013-10-20 09:43:00,
2013-10-20 03:53:00,40.0,-99.9,-100.00,NNE,29,12.0,15.0,-999,-99.99,,,-99.99,,2013-10-20 09:53:00,
2013-10-20 04:00:00,39.0,-99.9,-100.00,NNE,28,4.0,7.0,-999,-99.99,,,-99.99,,2013-10-20 10:00:00,
2013-10-20 04:43:00,39.0,-99.9,-100.00,NNE,28,4.0,7.0,-999,-99.99,,,-99.99,,2013-10-20 10:43:00,
2013-10-20 04:53:00,39.0,-99.9,-100.00,NNE,28,4.0,7.0,-999,-99.99,,,-99.99,,2013-10-20 10:53:00,
2013-10-20 05:00:00,38.0,-99.9,-100.00,SW,216,10.0,14.0,-999,-99.99,,,-99.99,,2013-10-20 11:00:00,
2013-10-20 05:43:00,38.0,-99.9,-100.00,SW,216,10.0,14.0,-999,-99.99,,,-99.99,,2013-10-20 11:43:00,
2013-10-20 05:52:00,38.0,-99.9,-100.00,SW,216,10.0,14.0,-999,-99.99,,,-99.99,,2013-10-20 11:52:00,
2013-10-20 06:00:00,38.0,-99.9,-100.00,SW,223,10.0,13.0,-999,-99.99,,,-99.99,,2013-10-20 12:00:00,
2013-10-20 06:42:00,38.0,-99.9,-100.00,SW,223,10.0,13.0,-999,-99.99,,,-99.99,,2013-10-20 12:42:00,
2013-10-20 06:52:00,38.0,-99.9,-100.00,SW,223,10.0,13.0,-999,-99.99,,,-99.99,,2013-10-20 12:52:00,
2013-10-20 07:00:00,39.0,-99.9,-100.00,SW,221,9.0,11.0,-999,-99.99,,,-99.99,,2013-10-20 13:00:00,
2013-10-20 07:42:00,39.0,-99.9,-100.00,SW,221,9.0,11.0,-999,-99.99,,,-99.99,,2013-10-20 13:42:00,
2013-10-20 07:52:00,39.0,-99.9,-100.00,SW,221,9.0,11.0,-999,-99.99,,,-99.99,,2013-10-20 13:52:00,
2013-10-20 08:00:00,40.0,-99.9,-100.00,SW,226,9.0,10.0,-999,-99.99,,,-99.99,,2013-10-20 14:00:00,
2013-10-20 08:42:00,40.0,-99.9,-100.00,SW,226,9.0,10.0,-999,-99.99,,,-99.99,,2013-10-20 14:42:00,
2013-10-20 08:52:00,40.0,-99.9,-100.00,SW,226,9.0,10.0,-999,-99.99,,,-99.99,,2013-10-20 14:52:00,
2013-10-20 09:00:00,44.0,-99.9,-100.00,North,355,2.0,5.0,-999,-99.99,,,-99.99,,2013-10-20 15:00:00,
2013-10-20 09:44:00,44.0,-99.9,-100.00,North,355,2.0,5.0,-999,-99.99,,,-99.99,,2013-10-20 15:44:00,
2013-10-20 09:54:00,44.0,-99.9,-100.00,North,355,2.0,5.0,-999,-99.99,,,-99.99,,2013-10-20 15:54:00,
2013-10-20 10:00:00,44.0,-99.9,-100.00,SW,221,7.0,9.0,-999,-99.99,,,-99.99,,2013-10-20 16:00:00,
2013-10-20 10:43:00,44.0,-99.9,-100.00,SW,221,7.0,9.0,-999,-99.99,,,-99.99,,2013-10-20 16:43:00,
2013-10-20 10:54:00,44.0,-99.9,-100.00,SW,221,7.0,9.0,-999,-99.99,,,-99.99,,2013-10-20 16:54:00,
2013-10-20 11:00:00,47.0,-99.9,-100.00,WSW,254,5.0,8.0,-999,-99.99,,,-99.99,,2013-10-20 17:00:00,
2013-10-20 11:42:00,47.0,-99.9,-100.00,WSW,254,5.0,8.0,-999,-99.99,,,-99.99,,2013-10-20 17:42:00,
2013-10-20 11:52:00,47.0,-99.9,-100.00,WSW,254,5.0,8.0,-999,-99.99,,,-99.99,,2013-10-20 17:52:00,
2013-10-20 12:00:00,49.0,-99.9,-100.00,SSE,166,2.0,3.0,-999,-99.99,,,-99.99,,2013-10-20 18:00:00,
2013-10-20 12:42:00,49.0,-99.9,-100.00,SSE,166,2.0,3.0,-999,-99.99,,,-99.99,,2013-10-20 18:42:00,
2013-10-20 12:52:00,49.0,-99.9,-100.00,SSE,166,2.0,3.0,-999,-99.99,,,-99.99,,2013-10-20 18:52:00,
2013-10-20 13:00:00,50.0,-99.9,-100.00,SSE,168,4.0,5.0,-999,-99.99,,,-99.99,,2013-10-20 19:00:00,
2013-10-20 13:42:00,50.0,-99.9,-100.00,SSE,168,4.0,5.0,-999,-99.99,,,-99.99,,2013-10-20 19:42:00,
2013-10-20 13:52:00,50.0,-99.9,-100.00,SSE,168,4.0,5.0,-999,-99.99,,,-99.99,,2013-10-20 19:52:00,
2013-10-20 14:00:00,50.0,-99.9,-100.00,NNE,32,10.0,13.0,-999,-99.99,,,-99.99,,2013-10-20 20:00:00,
2013-10-20 14:43:00,50.0,-99.9,-100.00,NNE,32,10.0,13.0,-999,-99.99,,,-99.99,,2013-10-20 20:43:00,
2013-10-20 14:52:00,50.0,-99.9,-100.00,NNE,32,10.0,13.0,-999,-99.99,,,-99.99,,2013-10-20 20:52:00,
2013-10-20 15:00:00,50.0,-99.9,-100.00,NE,52,11.0,13.0,-999,-99.99,,,-99.99,,2013-10-20 21:00:00,
2013-10-20 15:44:00,50.0,-99.9,-100.00,NE,52,11.0,13.0,-999,-99.99,,,-99.99,,2013-10-20 21:44:00,
2013-10-20 15:54:00,50.0,-99.9,-100.00,NE,52,11.0,13.0,-999,-99.99,,,-99.99,,2013-10-20 21:54:00,
2013-10-20 16:00:00,50.0,-99.9,-100.00,NE,55,9.0,10.0,-999,-99.99,,,-99.99,,2013-10-20 22:00:00,
2013-10-20 16:43:00,50.0,-99.9,-100.00,NE,55,9.0,10.0,-999,-99.99,,,-99.99,,2013-10-20 22:43:00,
2013-10-20 16:53:00,50.0,-99.9,-100.00,NE,55,9.0,10.0,-999,-99.99,,,-99.99,,2013-10-20 22:53:00,
2013-10-20 17:00:00,52.0,-99.9,-100.00,SSW,212,1.0,3.0,-999,-99.99,,,-99.99,,2013-10-20 23:00:00,
2013-10-20 17:43:00,52.0,-99.9,-100.00,SSW,212,1.0,3.0,-999,-99.99,,,-99.99,,2013-10-20 23:43:00,
2013-10-20 17:52:00,52.0,-99.9,-100.00,SSW,212,1.0,3.0,-999,-99.99,,,-99.99,,2013-10-20 23:52:00,
2013-10-20 18:00:00,47.0,-99.9,-100.00,SSW,210,4.0,5.0,-999,-99.99,,,-99.99,,2013-10-21 00:00:00,
2013-10-20 18:43:00,47.0,-99.9,-100.00,SSW,210,4.0,5.0,-999,-99.99,,,-99.99,,2013-10-21 00:43:00,
2013-10-20 18:52:00,47.0,-99.9,-100.00,SSW,210,4.0,5.0,-999,-99.99,,,-99.99,,2013-10-21 00:52:00,
2013-10-20 19:00:00,42.0,-99.9,-100.00,WSW,238,2.0,3.0,-999,-99.99,,,-99.99,,2013-10-21 01:00:00,
2013-10-20 19:42:00,42.0,-99.9,-100.00,WSW,238,2.0,3.0,-999,-99.99,,,-99.99,,2013-10-21 01:42:00,
2013-10-20 19:52:00,42.0,-99.9,-100.00,WSW,238,2.0,3.0,-999,-99.99,,,-99.99,,2013-10-21 01:52:00,
2013-10-20 21:00:00,38.0,-99.9,-100.00,WSW,237,10.0,11.0,-999,-99.99,,,-99.99,,2013-10-21 03:00:00,
2013-10-20 21:45:00,38.0,-99.9,-100.00,WSW,237,10.0,11.0,-999,-99.99,,,-99.99,,2013-10-21 03:45:00,
2013-10-20 21:55:00,38.0,-99.9,-100.00,WSW,237,10.0,11.0,-999,-99.99,,,-99.99,,2013-10-21 03:55:00,
2013-10-20 22:00:00,39.0,-99.9,-100.00,SSW,210,12.0,14.0,-999,-99.99,,,-99.99,,2013-10-21 04:00:00,
2013-10-20 22:44:00,39.0,-99.9,-100.00,SSW,210,12.0,14.0,-999,-99.99,,,-99.99,,2013-10-21 04:44:00,
2013-10-20 22:54:00,39.0,-99.9,-100.00,SSW,210,12.0,14.0,-999,-99.99,,,-99.99,,2013-10-21 04:54:00,
2013-10-20 23:00:00,39.0,-99.9,-100.00,SW,224,12.0,14.0,-999,-99.99,,,-99.99,,2013-10-21 05:00:00,
2013-10-20 23:43:00,39.0,-99.9,-100.00,SW,224,12.0,14.0,-999,-99.99,,,-99.99,,2013-10-21 05:43:00,
2013-10-20 23:52:00,39.0,-99.9,-100.00,SW,224,12.0,14.0,-999,-99.99,,,-99.99,,2013-10-21 05:52:00,